TimeCDT,TemperatureF,Dew PointF,Humidity,Sea Level PressureIn,VisibilityMPH,Wind Direction,Wind SpeedMPH,Gust SpeedMPH,PrecipitationIn,Events,Conditions,WindDirDegrees,DateUTC
12:53 AM,63.0,44.1,50,30.02,10.0,SE,8.1,-,N/A,,Clear,130,2011-10-06 05:53:00
1:53 AM,63.0,44.1,50,30.01,10.0,SSE,9.2,-,N/A,,Clear,160,2011-10-06 06:53:00
2:53 AM,63.0,45.0,52,30.00,10.0,SSE,9.2,-,N/A,,Clear,150,2011-10-06 07:53:00
3:53 AM,59.0,45.0,60,30.01,10.0,SE,4.6,-,N/A,,Clear,140,2011-10-06 08:53:00
4:53 AM,57.9,45.0,62,30.01,10.0,SE,4.6,-,N/A,,Clear,140,2011-10-06 09:53:00
5:53 AM,55.9,45.0,67,30.01,10.0,ESE,4.6,-,N/A,,Clear,110,2011-10-06 10:53:00
6:53 AM,55.0,45.0,69,30.01,10.0,SE,5.8,-,N/A,,Clear,130,2011-10-06 11:53:00
7:53 AM,60.1,46.0,60,30.02,10.0,SE,8.1,-,N/A,,Clear,140,2011-10-06 12:53:00
8:53 AM,64.9,46.9,52,30.03,10.0,SSE,11.5,20.7,N/A,,Clear,160,2011-10-06 13:53:00
9:53 AM,69.1,46.9,45,30.03,10.0,SSE,13.8,-,N/A,,Clear,160,2011-10-06 14:53:00
10:53 AM,75.0,46.9,37,30.02,10.0,SSE,17.3,24.2,N/A,,Clear,160,2011-10-06 15:53:00
11:53 AM,79.0,50.0,36,30.00,10.0,South,19.6,26.5,N/A,,Clear,170,2011-10-06 16:53:00
12:53 PM,81.0,51.1,35,29.99,10.0,South,16.1,31.1,N/A,,Clear,180,2011-10-06 17:53:00
1:53 PM,82.9,48.9,31,29.96,10.0,South,21.9,29.9,N/A,,Clear,170,2011-10-06 18:53:00
2:53 PM,82.9,46.0,27,29.94,10.0,South,21.9,32.2,N/A,,Scattered Clouds,170,2011-10-06 19:53:00
3:53 PM,84.9,41.0,21,29.91,10.0,SSE,26.5,31.1,N/A,,Scattered Clouds,160,2011-10-06 20:53:00
4:53 PM,84.9,39.0,20,29.90,10.0,South,17.3,33.4,N/A,,Clear,170,2011-10-06 21:53:00
5:53 PM,82.9,42.1,24,29.90,10.0,SSE,18.4,24.2,N/A,,Clear,150,2011-10-06 22:53:00
6:53 PM,80.1,44.1,28,29.91,10.0,SSE,11.5,24.2,N/A,,Clear,150,2011-10-06 23:53:00
7:53 PM,77.0,44.6,32,29.93,10.0,SSE,11.5,-,N/A,,Clear,150,2011-10-07 00:53:00
8:53 PM,73.9,46.9,38,29.94,10.0,SE,11.5,-,N/A,,Clear,140,2011-10-07 01:53:00
9:53 PM,73.9,46.9,38,29.95,10.0,SE,11.5,-,N/A,,Clear,140,2011-10-07 02:53:00
10:53 PM,73.0,48.9,42,29.95,10.0,SSE,19.6,26.5,N/A,,Clear,150,2011-10-07 03:53:00
11:53 PM,72.0,50.0,46,29.94,10.0,SSE,16.1,23.0,N/A,,Clear,150,2011-10-07 04:53:00